Location: ?????
(31.8092°N, 35.2590°E)
Time: 20:06:46
(UTC+00:00)

Spot 2 Rocket - Pass Details

Date: 20 June 2021
Orbit: 757 x 772 km, 98.5° (Epoch: 02 August)

Event Time Altitude Azimuth Distance (km) Brightness Sun altitude
Exits shadow 18:48:21 43° 111° (ESE) 1,058 3.8 -21.1°
Maximum altitude 18:49:22 50° 74° (ENE) 963 3.8 -21.2°
Drops below altitude 10° 18:54:16 10° 359° (N) 2,305 6.6 -21.9°
Sets 18:56:38 0° 355° (N) 3,237 7.6 -22.2°
